Overview Statistics Trail Chart Weather Telemetry Raw packets
 

This is the latest recevied weather packets stored in our database for station/object IW1CBG-3. If no packets are shown the sender has not sent any weather packets the latest 10 day(s).

<< 10 11 12 13 14 15 16 >>
Time Temp. Humidity Pressure Rain* Wind** Luminosity Snow
1788510976 25° C 54% 1029.4 hPa 0 mm - - -
1788510376 24.44° C 55% 1029.4 hPa 0 mm - - -
1788509777 23.89° C 59% 1029.6 hPa 0 mm - - -
1788509178 22.78° C 59% 1030.2 hPa 0 mm - - -
1788508578 21.67° C 65% 1030.4 hPa 0 mm - - -
1788507978 21.67° C 65% 1030.6 hPa 0 mm - - -
1788507377 20° C 70% 1030.9 hPa 0 mm - - -
1788506777 20° C 70% 1030.8 hPa 0 mm - - -
1788506178 18.89° C 71% 1031.3 hPa 0 mm - - -
1788505581 18.33° C 74% 1031.5 hPa 0 mm - - -
1788504977 17.78° C 74% 1031.6 hPa 0 mm - - -
1788504377 17.78° C 76% 1032 hPa 0 mm - - -
1788503777 16.67° C 78% 1032.2 hPa 0 mm - - -
1788503177 16.67° C 79% 1032.3 hPa 0 mm - - -
1788502577 16.11° C 81% 1032.5 hPa 0 mm - - -
1788501977 15.56° C 85% 1032.7 hPa 0 mm - - -
1788501378 13.89° C 90% 1033.1 hPa 0 mm - - -
1788500777 13.33° C 92% 1033 hPa 0 mm - - -
1788500177 13.89° C 91% 1033.2 hPa 0 mm - - -
1788499576 13.33° C 91% 1033.2 hPa 0 mm - - -
1788498977 13.33° C 92% 1033.3 hPa 0 mm - - -
1788498377 13.33° C 92% 1033.2 hPa 0 mm - - -
1788497778 13.89° C 91% 1032.9 hPa 0 mm - - -
1788497177 13.33° C 92% 1033 hPa 0 mm - - -
1788496578 13.89° C 91% 1032.7 hPa 0 mm - - -

* Rain latest hour (hover to see other rain measurements)
** Current wind speed in m/s (hover to see current wind gust speed)